Regional Weather Roundup
Issued by NWS

Home | Current Version | Previous Version | Graphics & Text | Print | Product List | Glossary On
Versions: 1 2 3 4 5 6 7 8 9 10 11 12 13 14 15 16 17 18 19 20 21 22 23 24 25 26 27 28 29 30 31 32 33 34 35 36 37 38 39 40 41 42 43 44 45 46 47 48 49 50
000
ASUS43 KIND 211600
RWRIN

WEATHER ROUNDUP FOR INDIANA
NATIONAL WEATHER SERVICE INDIANAPOLIS IN
1200 PM EDT MON MAY 21 2018

NOTE: "FAIR" INDICATES FEW OR NO CLOUDS BELOW 12,000 FEET WITH NO
SIGNIFICANT WEATHER AND/OR OBSTRUCTIONS TO VISIBILITY.

* - STATION DOES NOT REPORT WEATHER SUCH AS PRECIPITATION OR FOG.

+ - STATION NOT QUALITY CONTROLLED BY THE NATIONAL WEATHER SERVICE.
    USE DATA WITH CAUTION...ESPECIALLY DEWPOINT AND RELATIVE
    HUMIDITY OBSERVATIONS.

INZ001>003-010>013-019-020-211700-
NORTHWEST INDIANA

CITY           SKY/WX    TMP DP  RH WIND       PRES   REMARKS
GARY /AIRPORT/ MOSUNNY   61  61 100 SE8       30.10S FOG
MICHIGAN CITY+ LGT RAIN  59  59 100 E7        30.12F
MONTICELLO +   CLOUDY    65  60  82 SE6       30.11S
RENSSELAER +   PTSUNNY   66  55  68 SE8       30.11R

$$

LMZ046-743>745-211700-
SOUTHERN LAKE MICHIGAN

STATION/POSITION TIME  TEMP    WIND        PRES    WAVE
                       AIR SEA DIR/SP/G            HT
                 (UTC) (F)     (DEG/KT/KT) (MB)    (FT)
BURNS HARBOR     1540   61     110/  7/ 17 1019.6F
MICHIGAN CITY    1530   59      90/ 14/ 17   N/A
5NW MICH CITY    1550   57 53  120/  8/ 12   N/A     1

$$

INZ004-005-014>016-021>024-211700-
NORTH CENTRAL INDIANA

CITY           SKY/WX    TMP DP  RH WIND       PRES   REMARKS
ELKHART        TSTM      57  54  88 E8        30.18F
GOSHEN         LGT RAIN  59  54  83 E9        30.17R
SOUTH BEND     PTSUNNY   58  57  97 E13       30.15F

$$

INZ006>009-017-018-025>027-211700-
NORTHEAST INDIANA

CITY           SKY/WX    TMP DP  RH WIND       PRES   REMARKS
ANGOLA *+      FAIR      61  52  72 SE13      30.17F
FORT WAYNE     CLOUDY    65  56  72 E15       30.15F

$$

INZ028-029-035-036-043>045-051>053-211700-
WEST CENTRAL INDIANA

CITY           SKY/WX    TMP DP  RH WIND       PRES   REMARKS
CRAWFORDSVL +  FAIR      73  66  81 S8        30.11S
GREENCASTLE +  LGT RAIN  70  66  88 S3        30.13R
LAFAYETTE      CLOUDY    69  64  84 SE7       30.10S
TERRE HAUTE    FAIR      76  66  71 SE7       30.10F

$$

INZ030>032-037>040-046>048-054>057-064-065-211700-
CENTRAL INDIANA

CITY           SKY/WX    TMP DP  RH WIND       PRES   REMARKS
ANDERSON       MOSUNNY   73  63  68 SE12      30.13
COLUMBUS       PTSUNNY   75  63  64 S5        30.12S
INDIANAPOLIS   LGT RAIN  74  67  78 S9        30.12S
-EAGLE CREEK   PTSUNNY   74  65  73 S5        30.11S
KOKOMO +       PTSUNNY   69  62  78 SE9       30.14R
MT COMFORT *+  PTSUNNY   73  68  83 S8        30.13R
SHELBYVILLE    PTSUNNY   75  65  70 S7        30.11S

$$

INZ033-034-041-042-049-050-058-059-211700-
EAST CENTRAL INDIANA

CITY           SKY/WX    TMP DP  RH WIND       PRES   REMARKS
MUNCIE         FAIR      76  63  64 E14       30.12F
RICHMOND +     FAIR      70  68  94 S7        30.15F

$$

INZ060-061-067>069-081>083-085>088-211700-
SOUTHWEST INDIANA

CITY           SKY/WX    TMP DP  RH WIND       PRES   REMARKS
EVANSVILLE     FAIR      77  67  71 E7        30.10S
HUNTINGBURG +  FAIR      80  67  64 VRB3      30.10F

$$

INZ062-063-066-070>080-084-089>092-211700-
SOUTH CENTRAL AND SOUTHEAST INDIANA

CITY           SKY/WX    TMP DP  RH WIND       PRES   REMARKS
BLOOMINGTON    FAIR      76  66  71 W3        30.11F
FRENCH LICK *+ FAIR      77  59  53 CALM      30.12F
SEYMOUR +      FAIR      84  63  48 S8        30.10F

$$




USA.gov is the U.S. government's official web portal to all federal, state and local government web resources and services.